Location: Unspecified
(40.7945°N, 111.1337°W)
Time: 08:22:59
(UTC-06:00)

Okean 3 - Visible Passes

Search period start: 20 May 2019 00:00
Search period end: 30 May 2019 00:00
Orbit: 576 x 602 km, 82.5° (Epoch: 19 May)

Date Brightness Start Highest point End Pass type
(mag) Time Alt. Az. Time Alt. Az. Time Alt. Az.
20 May 5.4 21:20:41 10° ESE 21:22:12 12° E 21:23:42 10° ENE visible
20 May 4.2 22:56:36 23° SW 22:58:55 50° W 23:02:58 10° N visible
21 May 5.0 21:27:21 11° SE 21:29:58 18° E 21:32:46 10° NE visible
21 May 5.0 23:03:50 14° SW 23:06:56 33° WNW 23:10:43 10° NNW visible
22 May 4.5 21:34:32 11° SE 21:37:47 26° E 21:41:16 10° NNE visible
22 May 5.6 23:11:41 10° SW 23:14:58 22° WNW 23:18:17 10° NNW visible
23 May 3.9 21:41:46 10° SSE 21:45:38 39° E 21:49:32 10° NNE visible
23 May 6.2 23:20:34 10° WSW 23:23:04 15° WNW 23:25:35 10° NNW visible
24 May 3.4 21:49:27 10° S 21:53:32 61° E 21:57:38 10° NNE visible
24 May 6.5 23:30:28 10° WNW 23:31:12 10° WNW 23:31:55 10° WNW visible
25 May 3.4 21:57:18 10° S 22:01:27 86° WNW 22:05:38 10° N visible
26 May 4.1 22:05:21 10° SSW 22:09:24 55° W 22:13:31 10° N visible
27 May 5.0 22:13:35 10° SW 22:17:25 36° WNW 22:21:16 10° N visible
28 May 5.7 22:22:02 10° SW 22:25:27 24° WNW 22:28:53 10° NNW visible
29 May 6.3 22:30:49 10° WSW 22:33:31 17° WNW 22:36:15 10° NNW visible
